Starlink 3619

operational
NORAD ID: 51787 Int'l Des: 2022-017 Owner: SPXS Country: US Constellation: starlink
LEOCIRCULAR

Starlink 3619について

説明を読み込み中...

リアルタイム位置

3D地球を読み込み中...

次回通過

高度履歴

Altitude vs Time

uPlot chart will show altitude changes over time

軌道要素

1 51787U 22017V 25259.12885570 .00000458 00000-0 46877-4 0 9992
2 51787 53.2191 52.7558 0001234 98.9177 261.1955 15.08839771195928
Epoch: Sep 16, 2025 • Age: 10 hours

現在のステータス

高度 540.1 km
速度 7.60 km/s
衛星直下点 22.12°N, 118.49°W
打ち上げ日 Feb 25, 2022
運用期間 3.5 years
タイプ internet

技術仕様

分類 Payload
質量 297.00 kg
乾燥質量 275.00 kg
総質量 297.00 kg
長さ 0.20 m
直径 2.80 m
スパン 9.00 m
形状 Box + pan
製造者 SPXS
バスタイプ Starlink
フェーズステータス In Orbit
所有者/国 SPXS/US

大規模コンステレーション

Loading constellations...